owner,sensor,date,latitude,longitude,vertical_datum,mass_concentration_of_oxygen_in_sea_water,qcFlag 
DISL,ioos:station:DISL:CATA:1,2009-02-01T00:00:00Z,30.3085,-88.1395,2.293,6.62,1111122 
DISL,ioos:station:DISL:CATA:1,2009-02-01T00:30:00Z,30.3085,-88.1395,2.277,6.4,1111122 
DISL,ioos:station:DISL:CATA:1,2009-02-01T01:00:00Z,30.3085,-88.1395,2.258,6.57,1111122 
DISL,ioos:station:DISL:CATA:1,2009-02-01T01:30:00Z,30.3085,-88.1395,2.249,6.26,1111122 
DISL,ioos:station:DISL:CATA:1,2009-02-01T02:00:00Z,30.3085,-88.1395,2.239,6.73,1111122 
DISL,ioos:station:DISL:CATA:1,2009-02-01T02:30:00Z,30.3085,-88.1395,2.233,6.42,1111122 
DISL,ioos:station:DISL:CATA:1,2009-02-01T03:00:00Z,30.3085,-88.1395,2.23,6.23,1111122 
DISL,ioos:station:DISL:CATA:1,2009-02-01T03:30:00Z,30.3085,-88.1395,2.231,6.19,1111122 
DISL,ioos:station:DISL:CATA:1,2009-02-01T04:00:00Z,30.3085,-88.1395,2.22,6.1,1111122 
DISL,ioos:station:DISL:CATA:1,2009-02-01T04:30:00Z,30.3085,-88.1395,2.213,6.14,1111122 
DISL,ioos:station:DISL:CATA:1,2009-02-01T05:00:00Z,30.3085,-88.1395,2.204,6.12,1111122 
DISL,ioos:station:DISL:CATA:1,2009-02-01T05:30:00Z,30.3085,-88.1395,2.192,6.03,1111122 
DISL,ioos:station:DISL:CATA:1,2009-02-01T06:00:00Z,30.3085,-88.1395,2.181,5.75,1111122 
DISL,ioos:station:DISL:CATA:1,2009-02-01T06:30:00Z,30.3085,-88.1395,2.164,5.96,1111122 
DISL,ioos:station:DISL:CATA:1,2009-02-01T07:00:00Z,30.3085,-88.1395,2.164,5.63,1111122 
DISL,ioos:station:DISL:CATA:1,2009-02-01T07:30:00Z,30.3085,-88.1395,2.162,5.8,1111122 
DISL,ioos:station:DISL:CATA:1,2009-02-01T08:00:00Z,30.3085,-88.1395,2.161,5.88,1111122 
DISL,ioos:station:DISL:CATA:1,2009-02-01T08:30:00Z,30.3085,-88.1395,2.169,5.83,1111122 
DISL,ioos:station:DISL:CATA:1,2009-02-01T09:00:00Z,30.3085,-88.1395,2.184,5.91,1111122 
DISL,ioos:station:DISL:CATA:1,2009-02-01T09:30:00Z,30.3085,-88.1395,2.192,5.91,1111122 
DISL,ioos:station:DISL:CATA:1,2009-02-01T10:00:00Z,30.3085,-88.1395,2.201,5.96,1111122 
DISL,ioos:station:DISL:CATA:1,2009-02-01T10:30:00Z,30.3085,-88.1395,2.202,5.82,1111122 
DISL,ioos:station:DISL:CATA:1,2009-02-01T11:00:00Z,30.3085,-88.1395,2.199,5.52,1111122 
DISL,ioos:station:DISL:CATA:1,2009-02-01T11:30:00Z,30.3085,-88.1395,2.198,5.58,1111122 
DISL,ioos:station:DISL:CATA:1,2009-02-01T12:00:00Z,30.3085,-88.1395,2.205,5.63,1111122 
DISL,ioos:station:DISL:CATA:1,2009-02-01T12:30:00Z,30.3085,-88.1395,2.214,4.94,1111122 
DISL,ioos:station:DISL:CATA:1,2009-02-01T13:00:00Z,30.3085,-88.1395,2.224,4.66,1111122 
DISL,ioos:station:DISL:CATA:1,2009-02-01T13:30:00Z,30.3085,-88.1395,2.241,5.16,1111122 
DISL,ioos:station:DISL:CATA:1,2009-02-01T14:00:00Z,30.3085,-88.1395,2.257,5.05,1111122 
DISL,ioos:station:DISL:CATA:1,2009-02-01T14:30:00Z,30.3085,-88.1395,2.285,4.94,1111122 
DISL,ioos:station:DISL:CATA:1,2009-02-01T15:00:00Z,30.3085,-88.1395,2.316,4.82,1111122 
DISL,ioos:station:DISL:CATA:1,2009-02-01T15:30:00Z,30.3085,-88.1395,2.341,5.25,1111122 
DISL,ioos:station:DISL:CATA:1,2009-02-01T16:00:00Z,30.3085,-88.1395,2.365,5.59,1111122 
DISL,ioos:station:DISL:CATA:1,2009-02-01T16:30:00Z,30.3085,-88.1395,2.381,5.85,1111122 
DISL,ioos:station:DISL:CATA:1,2009-02-01T17:00:00Z,30.3085,-88.1395,2.39,5.97,1111122 
DISL,ioos:station:DISL:CATA:1,2009-02-01T17:30:00Z,30.3085,-88.1395,2.408,6.07,1111122 
DISL,ioos:station:DISL:CATA:1,2009-02-01T18:00:00Z,30.3085,-88.1395,2.42,6.03,1111122 
DISL,ioos:station:DISL:CATA:1,2009-02-01T18:30:00Z,30.3085,-88.1395,2.432,6.17,1111122 
DISL,ioos:station:DISL:CATA:1,2009-02-01T19:00:00Z,30.3085,-88.1395,2.436,6.02,1111122 
DISL,ioos:station:DISL:CATA:1,2009-02-01T19:30:00Z,30.3085,-88.1395,2.456,6.03,1111122 
DISL,ioos:station:DISL:CATA:1,2009-02-01T20:00:00Z,30.3085,-88.1395,2.458,5.65,1111122 
DISL,ioos:station:DISL:CATA:1,2009-02-01T20:30:00Z,30.3085,-88.1395,2.474,5.64,1111122 
DISL,ioos:station:DISL:CATA:1,2009-02-01T21:00:00Z,30.3085,-88.1395,2.484,5.64,1111122 
DISL,ioos:station:DISL:CATA:1,2009-02-01T21:30:00Z,30.3085,-88.1395,2.494,5.58,1111122 
DISL,ioos:station:DISL:CATA:1,2009-02-01T22:00:00Z,30.3085,-88.1395,2.502,5.51,1111122 
DISL,ioos:station:DISL:CATA:1,2009-02-01T22:30:00Z,30.3085,-88.1395,2.498,5.3,1111122 
DISL,ioos:station:DISL:CATA:1,2009-02-01T23:00:00Z,30.3085,-88.1395,2.473,5.38,1111122 
DISL,ioos:station:DISL:CATA:1,2009-02-01T23:30:00Z,30.3085,-88.1395,2.458,5.14,1111122 
DISL,ioos:station:DISL:CATA:1,2009-02-02T00:00:00Z,30.3085,-88.1395,2.426,5.35,1111122 
DISL,ioos:station:DISL:CATA:1,2009-02-02T00:30:00Z,30.3085,-88.1395,2.406,5.59,1111122 
DISL,ioos:station:DISL:CATA:1,2009-02-02T01:00:00Z,30.3085,-88.1395,2.395,5.79,1111122 
DISL,ioos:station:DISL:CATA:1,2009-02-02T01:30:00Z,30.3085,-88.1395,2.376,6.11,1111122 
DISL,ioos:station:DISL:CATA:1,2009-02-02T02:00:00Z,30.3085,-88.1395,2.351,5.8,1111122 
DISL,ioos:station:DISL:CATA:1,2009-02-02T02:30:00Z,30.3085,-88.1395,2.348,5.77,1111122 
DISL,ioos:station:DISL:CATA:1,2009-02-02T03:00:00Z,30.3085,-88.1395,2.341,5.9,1111122 
DISL,ioos:station:DISL:CATA:1,2009-02-02T03:30:00Z,30.3085,-88.1395,2.328,5.77,1111122 
DISL,ioos:station:DISL:CATA:1,2009-02-02T04:00:00Z,30.3085,-88.1395,2.322,6.0,1111122 
DISL,ioos:station:DISL:CATA:1,2009-02-02T04:30:00Z,30.3085,-88.1395,2.307,6.13,1111122 
DISL,ioos:station:DISL:CATA:1,2009-02-02T05:00:00Z,30.3085,-88.1395,2.293,6.06,1111122 
DISL,ioos:station:DISL:CATA:1,2009-02-02T05:30:00Z,30.3085,-88.1395,2.285,6.03,1111122 
DISL,ioos:station:DISL:CATA:1,2009-02-02T06:00:00Z,30.3085,-88.1395,2.266,5.87,1111122 
DISL,ioos:station:DISL:CATA:1,2009-02-02T06:30:00Z,30.3085,-88.1395,2.248,5.24,1111122 
DISL,ioos:station:DISL:CATA:1,2009-02-02T07:00:00Z,30.3085,-88.1395,2.26,5.68,1111122 
DISL,ioos:station:DISL:CATA:1,2009-02-02T07:30:00Z,30.3085,-88.1395,2.28,5.59,1111122 
DISL,ioos:station:DISL:CATA:1,2009-02-02T08:00:00Z,30.3085,-88.1395,2.264,5.69,1111122 
DISL,ioos:station:DISL:CATA:1,2009-02-02T08:30:00Z,30.3085,-88.1395,2.268,5.6,1111122 
DISL,ioos:station:DISL:CATA:1,2009-02-02T09:00:00Z,30.3085,-88.1395,2.296,5.48,1111122 
DISL,ioos:station:DISL:CATA:1,2009-02-02T09:30:00Z,30.3085,-88.1395,2.293,5.4,1111122 
DISL,ioos:station:DISL:CATA:1,2009-02-02T10:00:00Z,30.3085,-88.1395,2.304,5.41,1111122 
DISL,ioos:station:DISL:CATA:1,2009-02-02T10:30:00Z,30.3085,-88.1395,2.319,5.19,1111122 
DISL,ioos:station:DISL:CATA:1,2009-02-02T11:00:00Z,30.3085,-88.1395,2.343,5.17,1111122 
DISL,ioos:station:DISL:CATA:1,2009-02-02T11:30:00Z,30.3085,-88.1395,2.354,5.1,1111122 
DISL,ioos:station:DISL:CATA:1,2009-02-02T12:00:00Z,30.3085,-88.1395,2.37,5.12,1111122 
DISL,ioos:station:DISL:CATA:1,2009-02-02T12:30:00Z,30.3085,-88.1395,2.375,5.03,1111122 
DISL,ioos:station:DISL:CATA:1,2009-02-02T13:00:00Z,30.3085,-88.1395,2.388,4.9,1111122 
DISL,ioos:station:DISL:CATA:1,2009-02-02T13:30:00Z,30.3085,-88.1395,2.407,4.75,1111122 
DISL,ioos:station:DISL:CATA:1,2009-02-02T14:00:00Z,30.3085,-88.1395,2.425,4.58,1111122 
DISL,ioos:station:DISL:CATA:1,2009-02-02T14:30:00Z,30.3085,-88.1395,2.453,4.43,1111122 
DISL,ioos:station:DISL:CATA:1,2009-02-02T15:00:00Z,30.3085,-88.1395,2.46,4.67,1111122 
DISL,ioos:station:DISL:CATA:1,2009-02-02T15:30:00Z,30.3085,-88.1395,2.472,4.49,1111122 
DISL,ioos:station:DISL:CATA:1,2009-02-02T16:00:00Z,30.3085,-88.1395,2.505,4.61,1111122 
DISL,ioos:station:DISL:CATA:1,2009-02-02T16:30:00Z,30.3085,-88.1395,2.506,4.62,1111122 
DISL,ioos:station:DISL:CATA:1,2009-02-02T17:00:00Z,30.3085,-88.1395,2.537,4.7,1111122 
DISL,ioos:station:DISL:CATA:1,2009-02-02T17:30:00Z,30.3085,-88.1395,2.585,4.94,1111122 
DISL,ioos:station:DISL:CATA:1,2009-02-02T18:00:00Z,30.3085,-88.1395,2.531,4.77,1111122 
DISL,ioos:station:DISL:CATA:1,2009-02-02T18:30:00Z,30.3085,-88.1395,2.518,4.81,1111122 
DISL,ioos:station:DISL:CATA:1,2009-02-02T19:00:00Z,30.3085,-88.1395,2.506,4.84,1111122 
DISL,ioos:station:DISL:CATA:1,2009-02-02T19:30:00Z,30.3085,-88.1395,2.544,4.57,1111122 
DISL,ioos:station:DISL:CATA:1,2009-02-02T20:00:00Z,30.3085,-88.1395,2.559,4.55,1111122 
DISL,ioos:station:DISL:CATA:1,2009-02-02T20:30:00Z,30.3085,-88.1395,2.531,4.31,1111122 
DISL,ioos:station:DISL:CATA:1,2009-02-02T21:00:00Z,30.3085,-88.1395,2.529,4.6,1111122 
DISL,ioos:station:DISL:CATA:1,2009-02-02T21:30:00Z,30.3085,-88.1395,2.532,4.72,1111122 
DISL,ioos:station:DISL:CATA:1,2009-02-02T22:00:00Z,30.3085,-88.1395,2.518,4.9,1111122 
DISL,ioos:station:DISL:CATA:1,2009-02-02T22:30:00Z,30.3085,-88.1395,2.498,4.87,1111122 
DISL,ioos:station:DISL:CATA:1,2009-02-02T23:00:00Z,30.3085,-88.1395,2.496,4.74,1111122 
DISL,ioos:station:DISL:CATA:1,2009-02-02T23:30:00Z,30.3085,-88.1395,2.467,4.75,1111122 
DISL,ioos:station:DISL:CATA:1,2009-02-03T00:00:00Z,30.3085,-88.1395,2.383,4.7,1111122 
DISL,ioos:station:DISL:CATA:1,2009-02-03T00:30:00Z,30.3085,-88.1395,2.37,4.68,1111122 
DISL,ioos:station:DISL:CATA:1,2009-02-03T01:00:00Z,30.3085,-88.1395,2.325,4.57,1111122 
DISL,ioos:station:DISL:CATA:1,2009-02-03T01:30:00Z,30.3085,-88.1395,2.279,4.32,1111122 
DISL,ioos:station:DISL:CATA:1,2009-02-03T02:00:00Z,30.3085,-88.1395,2.259,4.37,1111122 
DISL,ioos:station:DISL:CATA:1,2009-02-03T02:30:00Z,30.3085,-88.1395,2.261,4.46,1111122 
DISL,ioos:station:DISL:CATA:1,2009-02-03T03:00:00Z,30.3085,-88.1395,2.237,4.4,1111122 
DISL,ioos:station:DISL:CATA:1,2009-02-03T03:30:00Z,30.3085,-88.1395,2.211,4.34,1111122 
DISL,ioos:station:DISL:CATA:1,2009-02-03T04:00:00Z,30.3085,-88.1395,2.197,4.23,1111122 
DISL,ioos:station:DISL:CATA:1,2009-02-03T04:30:00Z,30.3085,-88.1395,2.19,4.23,1111122 
DISL,ioos:station:DISL:CATA:1,2009-02-03T05:00:00Z,30.3085,-88.1395,2.168,4.15,1111122 
DISL,ioos:station:DISL:CATA:1,2009-02-03T05:30:00Z,30.3085,-88.1395,2.157,4.05,1111122 
DISL,ioos:station:DISL:CATA:1,2009-02-03T06:00:00Z,30.3085,-88.1395,2.146,3.96,1111122 
DISL,ioos:station:DISL:CATA:1,2009-02-03T06:30:00Z,30.3085,-88.1395,2.125,3.88,1111122 
DISL,ioos:station:DISL:CATA:1,2009-02-03T07:00:00Z,30.3085,-88.1395,2.099,3.85,1111122 
DISL,ioos:station:DISL:CATA:1,2009-02-03T07:30:00Z,30.3085,-88.1395,2.106,3.87,1111122 
DISL,ioos:station:DISL:CATA:1,2009-02-03T08:00:00Z,30.3085,-88.1395,2.136,3.77,1111122 
DISL,ioos:station:DISL:CATA:1,2009-02-03T08:30:00Z,30.3085,-88.1395,2.133,3.64,1111122 
DISL,ioos:station:DISL:CATA:1,2009-02-03T09:00:00Z,30.3085,-88.1395,2.123,3.74,1111122 
DISL,ioos:station:DISL:CATA:1,2009-02-03T09:30:00Z,30.3085,-88.1395,2.13,3.76,1111122 
DISL,ioos:station:DISL:CATA:1,2009-02-03T10:00:00Z,30.3085,-88.1395,2.121,3.88,1111122 
DISL,ioos:station:DISL:CATA:1,2009-02-03T10:30:00Z,30.3085,-88.1395,2.137,3.87,1111122 
DISL,ioos:station:DISL:CATA:1,2009-02-03T11:00:00Z,30.3085,-88.1395,2.16,3.79,1111122 
DISL,ioos:station:DISL:CATA:1,2009-02-03T11:30:00Z,30.3085,-88.1395,2.187,3.69,1111122 
DISL,ioos:station:DISL:CATA:1,2009-02-03T12:00:00Z,30.3085,-88.1395,2.212,3.76,1111122 
DISL,ioos:station:DISL:CATA:1,2009-02-03T12:30:00Z,30.3085,-88.1395,2.22,3.76,1111122 
DISL,ioos:station:DISL:CATA:1,2009-02-03T13:00:00Z,30.3085,-88.1395,2.252,3.59,1111122 
DISL,ioos:station:DISL:CATA:1,2009-02-03T13:30:00Z,30.3085,-88.1395,2.287,3.85,1111122 
DISL,ioos:station:DISL:CATA:1,2009-02-03T14:00:00Z,30.3085,-88.1395,2.322,4.03,1111122 
DISL,ioos:station:DISL:CATA:1,2009-02-03T14:30:00Z,30.3085,-88.1395,2.351,4.15,1111122 
DISL,ioos:station:DISL:CATA:1,2009-02-03T15:00:00Z,30.3085,-88.1395,2.369,4.25,1111122 
DISL,ioos:station:DISL:CATA:1,2009-02-03T15:30:00Z,30.3085,-88.1395,2.398,4.37,1111122 
DISL,ioos:station:DISL:CATA:1,2009-02-03T16:00:00Z,30.3085,-88.1395,2.426,4.37,1111122 
DISL,ioos:station:DISL:CATA:1,2009-02-03T16:30:00Z,30.3085,-88.1395,2.457,4.45,1111122 
DISL,ioos:station:DISL:CATA:1,2009-02-03T17:00:00Z,30.3085,-88.1395,2.476,4.31,1111122 
DISL,ioos:station:DISL:CATA:1,2009-02-03T17:30:00Z,30.3085,-88.1395,2.499,4.07,1111122 
DISL,ioos:station:DISL:CATA:1,2009-02-03T18:00:00Z,30.3085,-88.1395,2.524,3.95,1111122 
DISL,ioos:station:DISL:CATA:1,2009-02-03T18:30:00Z,30.3085,-88.1395,2.532,3.98,1111122 
DISL,ioos:station:DISL:CATA:1,2009-02-03T19:00:00Z,30.3085,-88.1395,2.542,3.96,1111122 
DISL,ioos:station:DISL:CATA:1,2009-02-03T19:30:00Z,30.3085,-88.1395,2.556,3.97,1111122 
DISL,ioos:station:DISL:CATA:1,2009-02-03T20:00:00Z,30.3085,-88.1395,2.554,4.09,1111122 
DISL,ioos:station:DISL:CATA:1,2009-02-03T20:30:00Z,30.3085,-88.1395,2.56,4.2,1111122 
DISL,ioos:station:DISL:CATA:1,2009-02-03T21:00:00Z,30.3085,-88.1395,2.576,4.16,1111122 
DISL,ioos:station:DISL:CATA:1,2009-02-03T21:30:00Z,30.3085,-88.1395,2.579,4.0,1111122 
DISL,ioos:station:DISL:CATA:1,2009-02-03T22:00:00Z,30.3085,-88.1395,2.58,3.91,1111122 
DISL,ioos:station:DISL:CATA:1,2009-02-03T22:30:00Z,30.3085,-88.1395,2.58,3.8,1111122 
DISL,ioos:station:DISL:CATA:1,2009-02-03T23:00:00Z,30.3085,-88.1395,2.575,3.69,1111122 
DISL,ioos:station:DISL:CATA:1,2009-02-03T23:30:00Z,30.3085,-88.1395,2.584,3.52,1111122 
DISL,ioos:station:DISL:CATA:1,2009-02-04T00:00:00Z,30.3085,-88.1395,2.583,3.55,1111122 
DISL,ioos:station:DISL:CATA:1,2009-02-04T00:30:00Z,30.3085,-88.1395,2.572,3.48,1111122 
DISL,ioos:station:DISL:CATA:1,2009-02-04T01:00:00Z,30.3085,-88.1395,2.565,3.27,1111122 
DISL,ioos:station:DISL:CATA:1,2009-02-04T01:30:00Z,30.3085,-88.1395,2.534,3.33,1111122 
DISL,ioos:station:DISL:CATA:1,2009-02-04T02:00:00Z,30.3085,-88.1395,2.515,3.3,1111122 
DISL,ioos:station:DISL:CATA:1,2009-02-04T02:30:00Z,30.3085,-88.1395,2.47,3.26,1111122 
DISL,ioos:station:DISL:CATA:1,2009-02-04T03:00:00Z,30.3085,-88.1395,2.421,3.08,1111122 
DISL,ioos:station:DISL:CATA:1,2009-02-04T03:30:00Z,30.3085,-88.1395,2.391,3.21,1111122 
DISL,ioos:station:DISL:CATA:1,2009-02-04T04:00:00Z,30.3085,-88.1395,2.366,3.25,1111122 
DISL,ioos:station:DISL:CATA:1,2009-02-04T04:30:00Z,30.3085,-88.1395,2.332,3.37,1111122 
DISL,ioos:station:DISL:CATA:1,2009-02-04T05:00:00Z,30.3085,-88.1395,2.269,3.57,1111122 
DISL,ioos:station:DISL:CATA:1,2009-02-04T05:30:00Z,30.3085,-88.1395,2.22,3.43,1111122 
DISL,ioos:station:DISL:CATA:1,2009-02-04T06:00:00Z,30.3085,-88.1395,2.177,3.41,1111122 
DISL,ioos:station:DISL:CATA:1,2009-02-04T06:30:00Z,30.3085,-88.1395,2.152,3.38,1111122 
DISL,ioos:station:DISL:CATA:1,2009-02-04T07:00:00Z,30.3085,-88.1395,2.122,3.39,1111122 
DISL,ioos:station:DISL:CATA:1,2009-02-04T07:30:00Z,30.3085,-88.1395,2.072,3.42,1111122 
DISL,ioos:station:DISL:CATA:1,2009-02-04T08:00:00Z,30.3085,-88.1395,2.052,3.39,1111122 
DISL,ioos:station:DISL:CATA:1,2009-02-04T08:30:00Z,30.3085,-88.1395,2.018,3.39,1111122 
DISL,ioos:station:DISL:CATA:1,2009-02-04T09:00:00Z,30.3085,-88.1395,1.998,3.32,1111122 
DISL,ioos:station:DISL:CATA:1,2009-02-04T09:30:00Z,30.3085,-88.1395,1.984,3.43,1111122 
DISL,ioos:station:DISL:CATA:1,2009-02-04T10:00:00Z,30.3085,-88.1395,1.971,3.41,1111122 
DISL,ioos:station:DISL:CATA:1,2009-02-04T10:30:00Z,30.3085,-88.1395,1.972,3.45,1111122 
DISL,ioos:station:DISL:CATA:1,2009-02-04T11:00:00Z,30.3085,-88.1395,1.977,3.46,1111122 
DISL,ioos:station:DISL:CATA:1,2009-02-04T11:30:00Z,30.3085,-88.1395,1.984,3.43,1111122 
DISL,ioos:station:DISL:CATA:1,2009-02-04T12:00:00Z,30.3085,-88.1395,1.996,3.45,1111122 
DISL,ioos:station:DISL:CATA:1,2009-02-04T12:30:00Z,30.3085,-88.1395,2.003,3.49,1111122 
DISL,ioos:station:DISL:CATA:1,2009-02-04T13:00:00Z,30.3085,-88.1395,2.029,3.43,1111122 
DISL,ioos:station:DISL:CATA:1,2009-02-04T13:30:00Z,30.3085,-88.1395,2.057,3.39,1111122 
DISL,ioos:station:DISL:CATA:1,2009-02-04T14:00:00Z,30.3085,-88.1395,2.074,3.25,1111122 
DISL,ioos:station:DISL:CATA:1,2009-02-04T14:30:00Z,30.3085,-88.1395,2.103,3.28,1111122 
DISL,ioos:station:DISL:CATA:1,2009-02-04T15:00:00Z,30.3085,-88.1395,2.139,3.09,1111122 
DISL,ioos:station:DISL:CATA:1,2009-02-04T15:30:00Z,30.3085,-88.1395,2.146,3.37,1111122 
DISL,ioos:station:DISL:CATA:1,2009-02-04T16:00:00Z,30.3085,-88.1395,2.177,3.62,1111122 
DISL,ioos:station:DISL:CATA:1,2009-02-04T16:30:00Z,30.3085,-88.1395,2.2,3.97,1111122 
DISL,ioos:station:DISL:CATA:1,2009-02-04T17:00:00Z,30.3085,-88.1395,2.233,4.26,1111122 
DISL,ioos:station:DISL:CATA:1,2009-02-04T17:30:00Z,30.3085,-88.1395,2.279,4.29,1111122 
DISL,ioos:station:DISL:CATA:1,2009-02-04T18:00:00Z,30.3085,-88.1395,2.313,4.12,1111122 
DISL,ioos:station:DISL:CATA:1,2009-02-04T18:30:00Z,30.3085,-88.1395,2.338,4.1,1111122 
DISL,ioos:station:DISL:CATA:1,2009-02-04T19:00:00Z,30.3085,-88.1395,2.373,3.95,1111122 
DISL,ioos:station:DISL:CATA:1,2009-02-04T19:30:00Z,30.3085,-88.1395,2.417,3.88,1111122 
DISL,ioos:station:DISL:CATA:1,2009-02-04T20:00:00Z,30.3085,-88.1395,2.435,3.6,1111122 
DISL,ioos:station:DISL:CATA:1,2009-02-04T20:30:00Z,30.3085,-88.1395,2.459,3.59,1111122 
DISL,ioos:station:DISL:CATA:1,2009-02-04T21:00:00Z,30.3085,-88.1395,2.478,3.56,1111122 
DISL,ioos:station:DISL:CATA:1,2009-02-04T21:30:00Z,30.3085,-88.1395,2.491,3.51,1111122 
DISL,ioos:station:DISL:CATA:1,2009-02-04T22:00:00Z,30.3085,-88.1395,2.508,3.54,1111122 
DISL,ioos:station:DISL:CATA:1,2009-02-04T22:30:00Z,30.3085,-88.1395,2.518,3.56,1111122 
DISL,ioos:station:DISL:CATA:1,2009-02-04T23:00:00Z,30.3085,-88.1395,2.527,3.7,1111122 
DISL,ioos:station:DISL:CATA:1,2009-02-04T23:30:00Z,30.3085,-88.1395,2.529,3.61,1111122 
DISL,ioos:station:DISL:CATA:1,2009-02-05T00:00:00Z,30.3085,-88.1395,2.529,3.41,1111122 
DISL,ioos:station:DISL:CATA:1,2009-02-05T00:30:00Z,30.3085,-88.1395,2.527,3.02,1111122 
DISL,ioos:station:DISL:CATA:1,2009-02-05T01:00:00Z,30.3085,-88.1395,2.516,2.83,1111122 
DISL,ioos:station:DISL:CATA:1,2009-02-05T01:30:00Z,30.3085,-88.1395,2.497,2.57,1111122 
DISL,ioos:station:DISL:CATA:1,2009-02-05T02:00:00Z,30.3085,-88.1395,2.477,2.19,1111122 
DISL,ioos:station:DISL:CATA:1,2009-02-05T02:30:00Z,30.3085,-88.1395,2.447,2.4,1111122 
DISL,ioos:station:DISL:CATA:1,2009-02-05T03:00:00Z,30.3085,-88.1395,2.415,2.73,1111122 
DISL,ioos:station:DISL:CATA:1,2009-02-05T03:30:00Z,30.3085,-88.1395,2.389,2.82,1111122 
DISL,ioos:station:DISL:CATA:1,2009-02-05T04:00:00Z,30.3085,-88.1395,2.351,3.03,1111122 
DISL,ioos:station:DISL:CATA:1,2009-02-05T04:30:00Z,30.3085,-88.1395,2.315,3.48,1111122 
DISL,ioos:station:DISL:CATA:1,2009-02-05T05:00:00Z,30.3085,-88.1395,2.278,3.45,1111122 
DISL,ioos:station:DISL:CATA:1,2009-02-05T05:30:00Z,30.3085,-88.1395,2.24,3.46,1111122 
DISL,ioos:station:DISL:CATA:1,2009-02-05T06:00:00Z,30.3085,-88.1395,2.201,3.29,1111122 
DISL,ioos:station:DISL:CATA:1,2009-02-05T06:30:00Z,30.3085,-88.1395,2.156,3.11,1111122 
DISL,ioos:station:DISL:CATA:1,2009-02-05T07:00:00Z,30.3085,-88.1395,2.116,3.24,1111122 
DISL,ioos:station:DISL:CATA:1,2009-02-05T07:30:00Z,30.3085,-88.1395,2.085,3.37,1111122 
DISL,ioos:station:DISL:CATA:1,2009-02-05T08:00:00Z,30.3085,-88.1395,2.052,3.39,1111122 
DISL,ioos:station:DISL:CATA:1,2009-02-05T08:30:00Z,30.3085,-88.1395,2.032,3.41,1111122 
DISL,ioos:station:DISL:CATA:1,2009-02-05T09:00:00Z,30.3085,-88.1395,2.008,3.41,1111122 
DISL,ioos:station:DISL:CATA:1,2009-02-05T09:30:00Z,30.3085,-88.1395,1.984,3.4,1111122 
DISL,ioos:station:DISL:CATA:1,2009-02-05T10:00:00Z,30.3085,-88.1395,1.956,3.38,1111122 
DISL,ioos:station:DISL:CATA:1,2009-02-05T10:30:00Z,30.3085,-88.1395,1.938,3.45,1111122 
DISL,ioos:station:DISL:CATA:1,2009-02-05T11:00:00Z,30.3085,-88.1395,1.92,3.4,1111122 
DISL,ioos:station:DISL:CATA:1,2009-02-05T11:30:00Z,30.3085,-88.1395,1.903,3.54,1111122 
DISL,ioos:station:DISL:CATA:1,2009-02-05T12:00:00Z,30.3085,-88.1395,1.898,3.48,1111122 
DISL,ioos:station:DISL:CATA:1,2009-02-05T12:30:00Z,30.3085,-88.1395,1.907,3.52,1111122 
DISL,ioos:station:DISL:CATA:1,2009-02-05T13:00:00Z,30.3085,-88.1395,1.923,3.45,1111122 
DISL,ioos:station:DISL:CATA:1,2009-02-05T13:30:00Z,30.3085,-88.1395,1.95,3.5,1111122 
DISL,ioos:station:DISL:CATA:1,2009-02-05T14:00:00Z,30.3085,-88.1395,1.981,3.63,1111122 
DISL,ioos:station:DISL:CATA:1,2009-02-05T14:30:00Z,30.3085,-88.1395,2.01,3.58,1111122 
DISL,ioos:station:DISL:CATA:1,2009-02-05T15:00:00Z,30.3085,-88.1395,2.047,3.64,1111122 
DISL,ioos:station:DISL:CATA:1,2009-02-05T15:30:00Z,30.3085,-88.1395,2.088,3.53,1111122 
DISL,ioos:station:DISL:CATA:1,2009-02-05T16:00:00Z,30.3085,-88.1395,2.115,3.45,1111122 
DISL,ioos:station:DISL:CATA:1,2009-02-05T16:30:00Z,30.3085,-88.1395,2.147,3.7,1111122 
DISL,ioos:station:DISL:CATA:1,2009-02-05T17:00:00Z,30.3085,-88.1395,2.173,3.68,1111122 
DISL,ioos:station:DISL:CATA:1,2009-02-05T17:30:00Z,30.3085,-88.1395,2.197,3.82,1111122 
DISL,ioos:station:DISL:CATA:1,2009-02-05T18:00:00Z,30.3085,-88.1395,2.232,3.88,1111122 
DISL,ioos:station:DISL:CATA:1,2009-02-05T18:30:00Z,30.3085,-88.1395,2.267,3.81,1111122 
DISL,ioos:station:DISL:CATA:1,2009-02-05T19:00:00Z,30.3085,-88.1395,2.304,3.82,1111122 
DISL,ioos:station:DISL:CATA:1,2009-02-05T19:30:00Z,30.3085,-88.1395,2.344,3.56,1111122 
DISL,ioos:station:DISL:CATA:1,2009-02-05T20:00:00Z,30.3085,-88.1395,2.383,3.69,1111122 
DISL,ioos:station:DISL:CATA:1,2009-02-05T20:30:00Z,30.3085,-88.1395,2.419,3.61,1111122 
DISL,ioos:station:DISL:CATA:1,2009-02-05T21:00:00Z,30.3085,-88.1395,2.459,3.72,1111122 
DISL,ioos:station:DISL:CATA:1,2009-02-05T21:30:00Z,30.3085,-88.1395,2.489,3.72,1111122 
DISL,ioos:station:DISL:CATA:1,2009-02-05T22:00:00Z,30.3085,-88.1395,2.523,3.61,1111122 
DISL,ioos:station:DISL:CATA:1,2009-02-05T22:30:00Z,30.3085,-88.1395,2.545,3.61,1111122 
DISL,ioos:station:DISL:CATA:1,2009-02-05T23:00:00Z,30.3085,-88.1395,2.577,3.46,1111122 
DISL,ioos:station:DISL:CATA:1,2009-02-05T23:30:00Z,30.3085,-88.1395,2.595,3.22,1111122 
DISL,ioos:station:DISL:CATA:1,2009-02-06T00:00:00Z,30.3085,-88.1395,2.603,3.24,1111122 
DISL,ioos:station:DISL:CATA:1,2009-02-06T00:30:00Z,30.3085,-88.1395,2.623,3.3,1111122 
DISL,ioos:station:DISL:CATA:1,2009-02-06T01:00:00Z,30.3085,-88.1395,2.64,3.39,1111122 
DISL,ioos:station:DISL:CATA:1,2009-02-06T01:30:00Z,30.3085,-88.1395,2.641,3.52,1111122 
DISL,ioos:station:DISL:CATA:1,2009-02-06T02:00:00Z,30.3085,-88.1395,2.65,3.44,1111122 
DISL,ioos:station:DISL:CATA:1,2009-02-06T02:30:00Z,30.3085,-88.1395,2.649,3.21,1111122 
DISL,ioos:station:DISL:CATA:1,2009-02-06T03:00:00Z,30.3085,-88.1395,2.644,3.21,1111122 
DISL,ioos:station:DISL:CATA:1,2009-02-06T03:30:00Z,30.3085,-88.1395,2.628,3.16,1111122 
DISL,ioos:station:DISL:CATA:1,2009-02-06T04:00:00Z,30.3085,-88.1395,2.594,2.9,1111122 
DISL,ioos:station:DISL:CATA:1,2009-02-06T04:30:00Z,30.3085,-88.1395,2.558,2.86,1111122 
DISL,ioos:station:DISL:CATA:1,2009-02-06T05:00:00Z,30.3085,-88.1395,2.519,2.9,1111122 
DISL,ioos:station:DISL:CATA:1,2009-02-06T05:30:00Z,30.3085,-88.1395,2.48,3.07,1111122 
DISL,ioos:station:DISL:CATA:1,2009-02-06T06:00:00Z,30.3085,-88.1395,2.431,3.22,1111122 
DISL,ioos:station:DISL:CATA:1,2009-02-06T06:30:00Z,30.3085,-88.1395,2.391,3.47,1111122 
DISL,ioos:station:DISL:CATA:1,2009-02-06T07:00:00Z,30.3085,-88.1395,2.347,3.48,1111122 
DISL,ioos:station:DISL:CATA:1,2009-02-06T07:30:00Z,30.3085,-88.1395,2.306,3.42,1111122 
DISL,ioos:station:DISL:CATA:1,2009-02-06T08:00:00Z,30.3085,-88.1395,2.27,3.28,1111122 
DISL,ioos:station:DISL:CATA:1,2009-02-06T08:30:00Z,30.3085,-88.1395,2.229,3.19,1111122 
DISL,ioos:station:DISL:CATA:1,2009-02-06T09:00:00Z,30.3085,-88.1395,2.205,3.13,1111122 
DISL,ioos:station:DISL:CATA:1,2009-02-06T09:30:00Z,30.3085,-88.1395,2.163,3.14,1111122 
DISL,ioos:station:DISL:CATA:1,2009-02-06T10:00:00Z,30.3085,-88.1395,2.13,3.13,1111122 
DISL,ioos:station:DISL:CATA:1,2009-02-06T10:30:00Z,30.3085,-88.1395,2.106,3.14,1111122 
DISL,ioos:station:DISL:CATA:1,2009-02-06T11:00:00Z,30.3085,-88.1395,2.087,3.21,1111122 
DISL,ioos:station:DISL:CATA:1,2009-02-06T11:30:00Z,30.3085,-88.1395,2.075,3.28,1111122 
DISL,ioos:station:DISL:CATA:1,2009-02-06T12:00:00Z,30.3085,-88.1395,2.047,3.31,1111122 
DISL,ioos:station:DISL:CATA:1,2009-02-06T12:30:00Z,30.3085,-88.1395,2.046,3.26,1111122 
DISL,ioos:station:DISL:CATA:1,2009-02-06T13:00:00Z,30.3085,-88.1395,2.051,3.33,1111122 
DISL,ioos:station:DISL:CATA:1,2009-02-06T13:30:00Z,30.3085,-88.1395,2.061,3.44,1111122 
DISL,ioos:station:DISL:CATA:1,2009-02-06T14:00:00Z,30.3085,-88.1395,2.08,3.5,1111122 
DISL,ioos:station:DISL:CATA:1,2009-02-06T14:30:00Z,30.3085,-88.1395,2.103,3.57,1111122 
DISL,ioos:station:DISL:CATA:1,2009-02-06T15:00:00Z,30.3085,-88.1395,2.133,3.56,1111122 
DISL,ioos:station:DISL:CATA:1,2009-02-06T15:30:00Z,30.3085,-88.1395,2.163,3.65,1111122 